{"data":{"norad_id":59886,"epoch":"2026-09-21T21:29:43.903392Z","epoch_age_seconds":53950,"freshness":"FRESH","line1":"1 59886U 24100B   26264.89564703 -.00000348  00000+0 -31142-5 0  9997","line2":"2 59886  43.0017  97.3631 0001084 270.0044  90.0684 15.27573155131162","mean_motion":15.27573155,"eccentricity":0.0001084,"inclination_deg":43.0017,"raan_deg":97.3631,"arg_perigee_deg":270.0044,"mean_anomaly_deg":90.0684,"bstar":-3.1142e-6,"rev_number":13116,"period_min":94.26717111954,"perigee_km":482.32583771404,"apogee_km":483.81334730329,"semimajor_km":6861.2065925087,"source":"CELESTRAK","updated_at":"2026-09-22T09:00:49.105399Z"}}